LTFH

Details ICAO LTFH (SZF)
Name CARSAMBA
Region Turkey
Timezone Europe/Istanbul (UTC+3.0)
Plans Departing 110
Arriving 130
Stats Elevation 18 ft / 5 m (AMSL)
Location 41.254480° 36.567103°
Runways 1
Magnetic Variation 6.239° E
Sunrise 2018-05-21 02:11:39 UTC / 2018-05-21 05:11:39 Local
Sunset 2018-05-21 16:51:50 UTC / 2018-05-21 19:51:50 Local
Advertisement - Login to hide

Runways

ID Width Length Bearing (true) Bearing (mag) Surface Threshold Offset Overrun Length
13 148 ft / 45 m 9,798 ft / 2,986 m 133.61° 127.37° Concrete 0 ft / 0 m 195 ft / 59 m
31 148 ft / 45 m 9,798 ft / 2,986 m 313.63° 307.39° Concrete 0 ft / 0 m 195 ft / 59 m

Approach Navaids

Runway Type Ident Frequency Range Bearing (true) Bearing (mag) Slope Elevation
13 Localiser ICRM 110.10 MHz 18 nm / 33 km 133.64° 127.40° - 18 ft / 5 m (AMSL)
13 Glidescope ICRM 110.10 MHz 10 nm / 19 km 133.62° 127.38° 3.00° 18 ft / 5 m (AMSL)

Map

Weather


0- 5 10 15 20 25 30 35+ Temperature / ° C

Clouds and Precipitation
Forecast for 2018-05-21 00:00 UTC. Updated 2 hours ago

Ground ~20,000 ft ~40,000 ft Winds

METAR

LTFH 210050Z 00000KT 9999 FEW036 SCT100 15/14 Q1017 NOSIG

TAF

Not found

Frequencies

Recorded 129.35 MHz ATIS
Tower 118.27 MHz TWR
Approach 118.22 MHz APP
Ground 121.70 MHz GND
Tower 118.35 MHz TWR
Approach 118.17 MHz APP
Warning: Do not use this data for real-world aviation or navigation. No guarantee of current accuracy is given.